Tarawa Terrace, NC

6:39 AM EST on February 08, 2016 (GMT -0500)
New River Marine Corps Air Station

Weather History for KNCA - August, 2014

Change the Weather History Date:

Friday, August 29, 2014

  Actual Average Record
Temperature  
Mean Temperature 81 °F -  
Max Temperature 91 °F 83 °F 96 °F (1998)
Min Temperature 71 °F 68 °F 66 °F (2010)
Cooling Degree Days 16    
Growing Degree Days 31 (Base 50)    
Moisture  
Dew Point 68 °F    
Average Humidity 71    
Maximum Humidity 91    
Minimum Humidity 39    
Precipitation  
Precipitation 0.00 in - - ()
Sea Level Pressure  
Sea Level Pressure 30.10 in    
Wind  
Wind Speed 3 mph (SE)    
Max Wind Speed 10 mph    
Max Gust Speed -    
Visibility 10 miles    
Events      
Averages and records for this station are not official NWS values.
T = Trace of Precipitation, MM = Missing Value Source: NWS Daily Summary

Daily Weather History Graph

Daily Weather History Graph

Search for Another Location

Airport or City:

Trip Planner

Search our weather history database for the weather conditions in past years. The results will help you decide how hot, cold, wet, or windy it might be!

Date:

Astronomy

Aug. 29, 2014 Rise Set
Actual Time 6:40 AM EDT 7:40 PM EDT
Civil Twilight 6:14 AM EDT 8:06 PM EDT
Nautical Twilight 5:43 AM EDT 8:36 PM EDT
Astronomical Twilight 5:12 AM EDT 9:08 PM EDT
Moon 10:17 AM EDT (8/29) 9:48 PM EDT (8/29)
Length of Visible Light 13h 51m
Length of Day
12h 59m
Waxing Crescent, 15% of the Moon is Illuminated
Aug 29
Waxing Crescent
Sep 2
First Quarter
Sep 8
Full
Sep 15
Last Quarter
Sep 24
New

Hourly Weather History & Observations

Time (EDT) Temp. Heat Index Dew Point Humidity Pressure Visibility Wind Dir Wind Speed Gust Speed Precip Events Conditions
12:56 AM 73.9 °F - 69.1 °F 85% 30.04 in 10.0 mi WSW 3.5 mph - N/A   Clear
1:56 AM 73.0 °F - 69.1 °F 87% 30.04 in 10.0 mi Calm Calm - N/A   Clear
2:56 AM 72.0 °F - 69.1 °F 91% 30.04 in 10.0 mi Calm Calm - N/A   Partly Cloudy
3:56 AM 72.0 °F - 69.1 °F 91% 30.04 in 10.0 mi SSW 3.5 mph - N/A   Scattered Clouds
4:56 AM 72.0 °F - 69.1 °F 91% 30.04 in 10.0 mi Calm Calm - N/A   Clear
5:56 AM 72.0 °F - 68.0 °F 87% 30.05 in 10.0 mi Calm Calm - N/A   Clear
6:56 AM 71.1 °F - 68.0 °F 90% 30.07 in 10.0 mi SW 3.5 mph - N/A   Partly Cloudy
7:56 AM 73.0 °F - 69.1 °F 87% 30.10 in 10.0 mi Calm Calm - N/A   Mostly Cloudy
8:56 AM 75.9 °F - 69.1 °F 79% 30.11 in 10.0 mi West 4.6 mph - N/A   Scattered Clouds
9:56 AM 79.0 °F - 66.9 °F 66% 30.11 in 10.0 mi WNW 4.6 mph - N/A   Clear
10:56 AM 84.9 °F 86.6 °F 64.9 °F 51% 30.12 in 10.0 mi Variable 4.6 mph - N/A   Clear
11:56 AM 87.1 °F 87.8 °F 63.0 °F 44% 30.11 in 10.0 mi NW 3.5 mph - N/A   Clear
12:56 PM 88.0 °F 89.3 °F 64.0 °F 45% 30.11 in 10.0 mi Variable 4.6 mph - N/A   Clear
1:56 PM 91.9 °F 93.3 °F 64.0 °F 39% 30.11 in 10.0 mi Calm Calm - N/A   Partly Cloudy
2:56 PM 89.1 °F 91.3 °F 66.0 °F 46% 30.09 in 10.0 mi ESE 6.9 mph - N/A   Mostly Cloudy
3:56 PM 90.0 °F 92.8 °F 66.9 °F 46% 30.08 in 10.0 mi ESE 4.6 mph - N/A   Clear
4:56 PM 87.1 °F 92.8 °F 71.1 °F 59% 30.09 in 10.0 mi SE 10.4 mph - N/A   Scattered Clouds
5:56 PM 84.0 °F 87.8 °F 69.1 °F 61% 30.10 in 10.0 mi SSE 6.9 mph - N/A   Mostly Cloudy
6:56 PM 82.0 °F 85.5 °F 69.1 °F 65% 30.10 in 10.0 mi SSE 5.8 mph - N/A   Scattered Clouds
7:56 PM 80.1 °F 82.3 °F 66.9 °F 64% 30.12 in 10.0 mi ESE 6.9 mph - N/A   Clear
8:56 PM 80.1 °F 82.9 °F 69.1 °F 69% 30.14 in 10.0 mi East 5.8 mph - N/A   Clear
9:56 PM 78.1 °F - 73.0 °F 84% 30.16 in 10.0 mi East 6.9 mph - N/A   Clear
10:56 PM 78.1 °F - 73.9 °F 87% 30.16 in 10.0 mi East 6.9 mph - N/A   Partly Cloudy
11:56 PM 77.0 °F - 73.0 °F 88% 30.17 in 10.0 mi East 5.8 mph - N/A   Clear